Waarnemingen

Advertentie
Mijn weer
Leucate/Semaphore, Frankrijk (7666): temperatuur & dauwpunt: 18.04.2018 10:00:00 - 24.04.2018 10:00:00 (CEST)Leucate/Semaphore, Frankrijk (7666): windsnelheid & windstoten: 18.04.2018 10:00:00 - 24.04.2018 10:00:00 (CEST)Leucate/Semaphore, Frankrijk (7666): windrichting: 18.04.2018 10:00:00 - 24.04.2018 10:00:00 (CEST)Leucate/Semaphore, Frankrijk (7666): luchtdruk: 18.04.2018 10:00:00 - 24.04.2018 10:00:00 (CEST)Leucate/Semaphore, Frankrijk (7666): zicht: 18.04.2018 10:00:00 - 24.04.2018 10:00:00 (CEST)Leucate/Semaphore, Frankrijk (7666): neerslag: 18.04.2018 10:00:00 - 24.04.2018 10:00:00 (CEST)
Datum & Tijd tt [°C] td [°C] ff [km/u] ff [kn] fx [km/u] fx [kn] dd ppp [hPa] vv [km] rr [mm]
24.04.2018 10:00:00 21,4 14,8 3 2 9 5 O 1019,2 - 0,0
24.04.2018 09:00:00 20,5 14,2 4 2 10 5 O 1019,0 - 0,0
24.04.2018 08:00:00 18,0 13,1 3 2 10 5 Z 1018,5 15 0,0
24.04.2018 07:00:00 16,2 12,4 5 3 22 12 WNW 1018,4 - 0,0
24.04.2018 06:00:00 16,2 12,4 16 9 22 12 WNW 1018,2 - 0,0
24.04.2018 05:00:00 16,1 12,5 11 6 14 8 NW 1018,6 - 0,0
24.04.2018 04:00:00 16,6 12,7 9 5 16 9 N 1019,1 - 0,0
24.04.2018 03:00:00 16,4 12,6 10 5 22 12 NNW 1019,3 - 0,0
24.04.2018 02:00:00 17,8 12,7 14 8 26 14 NNW 1019,1 - 0,0
24.04.2018 01:00:00 19,1 12,1 14 8 29 16 W 1018,9 - 0,0
24.04.2018 00:00:00 18,6 11,7 13 7 28 15 W 1019,1 - 0,0
23.04.2018 23:00:00 18,7 12,9 7 4 18 10 NW 1019,4 - 0,0
23.04.2018 22:00:00 18,4 14,7 6 3 12 6 NNO 1018,8 - 0,0
23.04.2018 21:00:00 19,6 12,1 10 6 24 13 WZW 1018,2 - 0,0
23.04.2018 20:00:00 20,2 12,2 15 8 29 16 WNW 1018,1 12 0,0
23.04.2018 19:00:00 19,9 14,0 6 3 17 9 WZW 1018,6 - 0,0
23.04.2018 18:00:00 19,3 13,7 10 5 27 15 ZZW 1018,5 - 0,0
23.04.2018 17:00:00 19,0 12,7 11 6 21 11 Z 1018,2 12 0,0
23.04.2018 16:00:00 18,7 13,5 8 4 14 8 Z 1018,7 - 0,0
23.04.2018 15:00:00 19,1 14,4 9 5 14 7 Z 1019,2 - 0,0
23.04.2018 14:00:00 19,8 14,4 5 3 18 10 ZO 1019,3 15 0,0
23.04.2018 13:00:00 19,3 13,9 9 5 21 12 NNO 1019,4 - 0,0
23.04.2018 12:00:00 19,5 14,9 6 3 24 13 NNO 1019,6 - 0,0
23.04.2018 11:00:00 19,7 14,1 8 4 21 11 N 1019,3 - 0,0
23.04.2018 10:00:00 18,7 13,1 14 8 27 15 NNW 1019,3 - 0,0
23.04.2018 09:00:00 17,1 13,2 16 8 29 16 NNW 1019,2 - 0,0
23.04.2018 08:00:00 15,1 12,8 14 8 25 14 NW 1018,9 15 0,0
23.04.2018 07:00:00 14,6 12,5 12 7 29 15 NW 1018,3 - 0,0
23.04.2018 06:00:00 14,7 12,4 16 9 32 17 NW 1017,9 - 0,0
23.04.2018 05:00:00 14,7 12,4 18 10 33 18 NW 1017,9 12 0,0
23.04.2018 04:00:00 14,8 12,5 21 11 37 20 NW 1017,5 - 0,0
23.04.2018 03:00:00 15,0 12,9 24 13 39 21 NNW 1017,2 - 0,0
23.04.2018 02:00:00 15,0 12,9 19 11 33 18 NW 1017,7 - 0,0
23.04.2018 01:00:00 15,2 13,2 23 13 39 21 NNW 1017,4 - 0,0
23.04.2018 00:00:00 15,6 13,6 20 11 35 19 NNW 1017,5 - 0,0
22.04.2018 23:00:00 16,2 14,0 24 13 32 18 NNW 1017,1 - 0,0
22.04.2018 22:00:00 16,3 13,8 18 10 26 14 N 1017,0 - 0,0
22.04.2018 21:00:00 16,3 13,8 11 6 23 12 N 1016,5 - 0,0
22.04.2018 20:00:00 16,8 13,7 9 5 16 9 N 1016,0 - 0,0
22.04.2018 19:00:00 17,2 14,3 7 4 17 9 O 1015,8 - 0,0
22.04.2018 18:00:00 17,9 15,2 8 5 13 7 OZO 1016,0 - 0,0
22.04.2018 17:00:00 17,1 15,1 4 2 11 6 O 1016,1 - 0,0
22.04.2018 16:00:00 18,3 14,8 6 4 17 9 NNO 1016,4 - 0,0
22.04.2018 15:00:00 17,9 15,0 9 5 24 13 NNO 1017,0 - 0,0
22.04.2018 14:00:00 18,2 14,9 11 6 26 14 N 1017,1 12 0,0
22.04.2018 13:00:00 18,6 14,7 11 6 25 14 N 1017,4 - 0,0
22.04.2018 12:00:00 18,0 14,7 16 9 27 15 N 1017,6 - 0,0
22.04.2018 11:00:00 17,4 14,3 16 9 28 15 N 1017,5 - 0,0
22.04.2018 10:00:00 17,1 14,0 18 10 31 17 N 1017,2 - 0,0
22.04.2018 09:00:00 16,0 12,7 20 11 36 19 NNW 1016,8 - 0,0
22.04.2018 08:00:00 15,1 13,0 24 13 36 20 NNW 1016,4 20 0,0
22.04.2018 07:00:00 14,6 13,1 23 13 36 19 NNW 1015,9 - 0,0
22.04.2018 06:00:00 14,5 13,0 18 10 32 17 NNW 1015,6 - 0,2
22.04.2018 05:00:00 14,9 13,4 18 10 28 15 NNW 1016,0 - 0,0
22.04.2018 04:00:00 15,3 13,7 16 9 26 14 NNW 1016,2 - 0,0
22.04.2018 03:00:00 15,5 13,5 14 8 24 13 NNW 1016,5 - 0,0
22.04.2018 02:00:00 16,2 13,9 13 7 20 11 N 1017,0 - 0,0
22.04.2018 01:00:00 16,4 13,7 13 7 21 11 N 1017,2 - 0,0
22.04.2018 00:00:00 16,6 13,9 10 5 24 13 N 1017,2 - 0,0
21.04.2018 23:00:00 16,7 13,6 11 6 16 9 N 1017,6 - 0,0
21.04.2018 22:00:00 17,2 13,3 5 3 13 7 N 1017,5 - 0,0
21.04.2018 21:00:00 17,2 12,5 4 2 18 10 WNW 1017,3 - 0,0
21.04.2018 20:00:00 17,8 12,7 10 6 26 14 ZZO 1017,2 20 0,0
21.04.2018 19:00:00 17,9 13,6 8 4 24 13 Z 1017,6 - 0,0
21.04.2018 18:00:00 18,1 13,8 10 5 17 9 ZZO 1018,1 - 0,0
21.04.2018 17:00:00 18,8 14,1 8 4 19 11 ZO 1018,3 - 0,0
21.04.2018 16:00:00 19,1 13,9 11 6 18 10 O 1018,8 - 0,0
21.04.2018 15:00:00 19,3 14,3 8 4 17 9 O 1019,2 - 0,0
21.04.2018 14:00:00 19,1 13,3 8 4 14 8 O 1019,6 20 0,0
21.04.2018 13:00:00 18,8 13,4 6 3 13 7 O 1020,1 - 0,0
21.04.2018 12:00:00 18,8 13,2 4 2 11 6 ONO 1020,5 - 0,0
21.04.2018 11:00:00 17,9 12,6 5 3 11 6 NO 1020,5 18 0,0
21.04.2018 10:00:00 16,9 12,6 6 3 9 5 NNO 1020,4 - 0,0
21.04.2018 09:00:00 16,5 13,0 4 2 10 5 NNW 1020,6 - 0,0
21.04.2018 08:00:00 14,1 12,8 7 4 14 7 NNW 1020,4 - 0,0
21.04.2018 07:00:00 12,7 11,3 8 4 14 7 NNW 1020,0 - 0,0
21.04.2018 06:00:00 13,5 11,2 11 6 17 9 N 1019,9 - 0,2
21.04.2018 05:00:00 14,0 11,3 3 1 7 4 NNW 1020,2 - 0,0
21.04.2018 04:00:00 14,4 10,6 3 1 7 4 NO 1020,4 - 0,0
21.04.2018 03:00:00 14,5 10,5 5 3 11 6 ZW 1020,7 - 0,0
21.04.2018 02:00:00 14,8 11,2 4 2 8 5 Z 1021,0 - 0,0
21.04.2018 01:00:00 15,3 13,0 8 4 13 7 ZW 1021,2 - 0,0
21.04.2018 00:00:00 16,1 12,6 10 5 12 7 Z 1021,4 - 0,0
20.04.2018 23:00:00 16,0 13,1 3 2 5 3 ZZO 1021,5 - 0,0
20.04.2018 22:00:00 16,3 12,1 0 0 4 2 N 1021,6 - 0,0
20.04.2018 21:00:00 15,9 12,8 0 0 5 3 N 1021,2 - 0,0
20.04.2018 20:00:00 17,3 13,4 2 1 9 5 ONO 1020,9 20 0,0
20.04.2018 19:00:00 17,7 13,4 5 3 9 5 Z 1021,3 - 0,0
20.04.2018 18:00:00 18,3 12,9 6 3 14 7 O 1021,5 - 0,0
20.04.2018 17:00:00 18,3 12,5 8 5 12 6 OZO 1021,9 - 0,0
20.04.2018 16:00:00 18,8 13,2 8 4 15 8 OZO 1022,4 - 0,0
20.04.2018 15:00:00 18,9 11,7 9 5 15 8 O 1023,0 - 0,0
20.04.2018 14:00:00 19,4 11,2 4 2 9 5 ONO 1023,2 - 0,0
20.04.2018 13:00:00 18,3 9,6 5 3 10 6 NNO 1023,8 - 0,0
20.04.2018 12:00:00 17,6 10,2 5 3 12 7 NNO 1024,0 - 0,0
20.04.2018 11:00:00 17,3 10,7 5 3 10 5 NO 1024,0 20 0,0
20.04.2018 10:00:00 17,4 12,1 4 2 7 4 ONO 1023,8 - 0,0
20.04.2018 09:00:00 16,0 12,2 3 2 14 8 WNW 1023,7 - 0,0
20.04.2018 08:00:00 13,9 11,8 9 5 16 9 NNW 1023,4 20 0,0
20.04.2018 07:00:00 12,9 11,6 13 7 17 9 NNW 1023,1 - 0,0
20.04.2018 06:00:00 12,3 10,5 9 5 14 8 NNW 1023,1 - 0,0
20.04.2018 05:00:00 12,4 9,8 10 5 13 7 N 1023,2 20 0,0
20.04.2018 04:00:00 14,1 12,0 0 0 7 4 N 1023,2 - 0,0
20.04.2018 03:00:00 15,1 11,7 3 2 8 5 ZZW 1023,4 - 0,0
20.04.2018 02:00:00 15,0 11,4 4 2 9 5 Z 1024,0 - 0,0
20.04.2018 01:00:00 15,4 10,4 6 3 10 5 ZW 1024,3 - 0,0
20.04.2018 00:00:00 14,4 11,2 7 4 10 5 WZW 1024,5 - 0,2
19.04.2018 23:00:00 14,6 10,8 4 2 9 5 N 1024,7 - 0,0
19.04.2018 22:00:00 15,3 12,6 4 2 14 8 N 1024,7 - 0,0
19.04.2018 21:00:00 15,5 13,0 7 4 14 8 NNW 1024,2 - 0,0
19.04.2018 20:00:00 17,0 13,3 8 5 14 8 N 1024,1 20 0,0
19.04.2018 19:00:00 17,8 13,7 5 3 12 7 NO 1024,5 - 0,0
19.04.2018 18:00:00 17,9 13,8 9 5 19 11 O 1024,8 - 0,0
19.04.2018 17:00:00 18,0 13,5 14 8 20 11 O 1025,0 - 0,0
19.04.2018 16:00:00 18,2 14,1 8 4 14 8 ONO 1025,3 - 0,0
19.04.2018 15:00:00 18,6 13,9 5 3 9 5 O 1025,9 - 0,0
19.04.2018 14:00:00 18,5 12,9 4 2 11 6 ONO 1026,3 20 0,0
19.04.2018 13:00:00 17,8 11,4 6 3 12 7 NNO 1026,6 - 0,0
19.04.2018 12:00:00 17,6 10,0 7 4 13 7 NNO 1026,9 - 0,0
19.04.2018 11:00:00 17,5 10,8 10 5 15 8 N 1026,8 - 0,0
19.04.2018 10:00:00 16,9 11,6 9 5 15 8 N 1026,5 - 0,0
19.04.2018 09:00:00 16,1 12,5 10 6 18 10 N 1026,1 - 0,0
19.04.2018 08:00:00 14,6 12,6 11 6 14 8 NNW 1025,8 20 0,0
19.04.2018 07:00:00 13,5 11,0 9 5 11 6 NNW 1025,6 - 0,0
19.04.2018 06:00:00 13,0 11,4 10 5 14 8 WNW 1025,6 - 0,0
19.04.2018 05:00:00 13,8 12,2 5 3 11 6 NW 1025,9 15 0,0
19.04.2018 04:00:00 14,3 12,2 10 5 13 7 NNW 1025,8 - 0,0
19.04.2018 03:00:00 15,3 12,8 7 4 16 8 ONO 1025,8 - 0,0
19.04.2018 02:00:00 15,2 12,9 11 6 16 9 N 1026,1 - 0,0
19.04.2018 01:00:00 14,7 12,6 9 5 13 7 N 1026,1 - 0,0
19.04.2018 00:00:00 14,8 12,3 8 4 14 8 N 1026,2 - 0,0
18.04.2018 23:00:00 15,3 12,1 8 5 17 9 N 1026,2 - 0,0
18.04.2018 22:00:00 16,9 10,7 13 7 17 9 OZO 1025,8 - 0,0
18.04.2018 21:00:00 17,6 10,0 10 5 17 9 Z 1025,1 - 0,0
18.04.2018 20:00:00 18,4 10,2 9 5 37 20 Z 1025,2 - 0,0
18.04.2018 19:00:00 18,8 10,4 27 15 42 23 Z 1025,0 - 0,0
18.04.2018 18:00:00 18,2 12,0 8 4 25 13 Z 1025,4 - 0,0
18.04.2018 17:00:00 17,8 12,9 6 4 15 8 O 1025,6 25 0,0
18.04.2018 16:00:00 17,7 13,0 12 7 18 10 O 1025,6 - 0,0
18.04.2018 15:00:00 17,9 14,0 8 4 16 9 ONO 1025,8 - 0,0
18.04.2018 14:00:00 17,1 13,4 10 5 18 10 O 1025,9 - 0,0
18.04.2018 13:00:00 17,7 13,2 8 4 14 8 ONO 1026,1 - 0,0
18.04.2018 12:00:00 17,3 11,3 7 4 13 7 NNO 1026,1 - 0,0
18.04.2018 11:00:00 17,2 10,3 8 5 15 8 NO 1026,1 - 0,0
18.04.2018 10:00:00 16,9 9,3 10 5 13 7 NNO 1025,6 - 0,0

tt = temperatuur
td = dauwpunt
ff = windsnelheid
fx = windstoten
dd = windrichting
ppp = luchtdruk
vv = zicht
rr = neerslag

Weerstations in de omgeving